Simultaneous Nadir Overpasses (SNOs) Predictions

Prediction of SNOs between LANDSAT-8 and METOP-A Satellite Orbit:

Table of predicted SNOs for the next 14.0 days since TLE Epoch: 3/28/2015
Index Date (LANDSAT-8) Time (LANDSAT-8) Lat,Lon (LANDSAT-8) SZA (LANDSAT-8 ) Date (METOP-A) Time (METOP-A) Lat,Lon (METOP-A) SZA (METOP-A ) Distance(km) Time Diff (sec)
1 03/28/2015 02:09:33 81.12,-173.16 80.17 03/28/2015 02:08:36 81.11,-173.24 80.13 1.54 57
2 03/28/2015 02:58:59 -81.14, -5.24 99.81 03/28/2015 02:59:15 -81.14, -5.10 99.79 2.26 16
3 03/30/2015 21:43:45 81.11,-106.86 79.07 03/30/2015 21:42:56 81.11,-106.78 79.07 1.47 49
4 03/30/2015 22:33:11 -81.13, 61.08 100.90 03/30/2015 22:33:36 -81.13, 61.01 100.90 1.19 25
5 04/02/2015 17:17:57 81.12, -40.34 78.02 04/02/2015 17:17:17 81.11, -40.39 78.00 0.89 40
6 04/02/2015 18:07:23 -81.14, 127.61 101.95 04/02/2015 18:07:57 -81.13, 127.43 101.96 3.24 34
7 04/05/2015 12:52:09 81.11, 26.03 76.96 04/05/2015 12:51:38 81.11, 25.92 76.94 1.88 31
8 04/05/2015 13:41:35 -81.13,-166.00 103.01 04/05/2015 13:42:17 -81.14,-165.86 102.97 2.65 42
9 04/08/2015 08:26:19 81.12, 92.62 75.94 04/08/2015 08:25:57 81.12, 92.53 75.93 1.47 22




NCC Satellite Simultaneous Nadir Overpasses (SNOs) Prediction Service
